Location: Unspecified
(47.9110°N, 14.3980°E)
Time: 03:12:27
(UTC+00:00)

Genesis I - Pass Details

Date: 06 August 2020
Orbit: 504 x 518 km, 64.5° (Epoch: 25 September)

Event Time Altitude Azimuth Distance (km) Brightness Sun altitude
Rises 21:17:52 0° 318° (NW) 2,623 8.2 -21.1°
Reaches altitude 10° 21:20:04 10° 313° (NW) 1,736 6.9 -21.3°
Maximum altitude 21:23:50 51° 237° (WSW) 648 3.5 -21.6°
Enters shadow 21:23:51 51° 236° (WSW) 648 3.5 -21.6°
